Weather Roundup
Issued by NWS

Home | Current Version | Previous Version | Graphics & Text | Print | Product List | Glossary On
Versions: 1 2 3 4 5 6 7 8 9 10 11 12 13 14 15 16 17 18 19 20 21 22 23 24 25 26 27 28 29 30 31 32 33 34 35 36 37 38 39 40 41 42 43 44 45 46 47 48 49 50
000
NZUS93 KARX 221310
HRRWXR

CURRENT HOURLY OBSERVATIONS ACROSS
MUCH OF THE UPPER MISSISSIPPI VALLEY
NATIONAL WEATHER SERVICE LA CROSSE WI
700 AM CST WED NOV 22 2017


...SOUTHEAST MINNESOTA...


CITY           SKY/WX    TMP DP  RH WIND       PRES   REMARKS
ROCHESTER      CLOUDY    11   9  92 W5        30.30S WCI   3
ROCHESTER/MAYO FAIR      15  11  84 CALM      30.32S
WINONA           N/A     18  12  79 N3        30.36R
AUSTIN         CLOUDY    12  10  92 CALM      30.32R
ALBERT LEA     CLOUDY    12   9  85 CALM      30.31F
DODGE CENTER   CLOUDY     9   7  92 SW5       30.30S WCI   0
PRESTON          N/A     11   8  87 W5        30.31R WCI   3
OWATONNA       CLOUDY    10   7  85 S3        30.31F
FARIBAULT      CLOUDY    12   9  85 CALM      30.32S
$$

...ELSEWHERE IN MINNESOTA...


CITY           SKY/WX    TMP DP  RH WIND       PRES   REMARKS
MINNEAPOLIS    CLOUDY    16  11  80 SW3       30.32F
INTNL FALLS      N/A      3  -2  79 CALM      30.18S
DULUTH         CLOUDY     9   6  88 W7        30.20F WCI  -2
RED WING       CLOUDY    12   7  79 CALM      30.33S
REDWOOD FALLS  CLOUDY    11   5  77 SW5       30.31S WCI   3
MANKATO        CLOUDY    13  10  88 CALM      30.33S
WORTHINGTON    CLOUDY    12   7  80 S6        30.29S WCI   3
FAIRMONT       CLOUDY    11   7  84 SW6       30.33S WCI   1
$$

...SOUTHWEST WISCONSIN...


CITY           SKY/WX    TMP DP  RH WIND       PRES   REMARKS
LA CROSSE      CLOUDY    17  10  74 N5        30.36R WCI  10
PRAIRIE DU CHI CLOUDY    17  12  78 CALM      30.37R
BOSCOBEL       CLOUDY    14  10  84 CALM      30.36S
LONE ROCK      CLOUDY    13   9  84 W3        30.35R
PLATTEVILLE    CLOUDY    17  15  91 W3        30.33S
FORT MC COY    CLOUDY     9   8  92 CALM      30.35R
CAMP DOUGLAS   PTCLDY     9   5  85 W3        30.32R
MAUSTON-NEW LI CLOUDY    13  10  85 CALM      30.32R
VIROQUA        FAIR      15  13  94 CALM      30.30R
WIS DELLS      CLOUDY    14  10  81 CALM      30.31S
$$

...ELSEWHERE IN WISCONSIN...


CITY           SKY/WX    TMP DP  RH WIND       PRES   REMARKS
MILWAUKEE      PTCLDY    22  13  68 NW3       30.31S
MADISON        CLOUDY    16  12  84 NW5       30.31F WCI   9
GREEN BAY      CLOUDY    24  17  74 W6        30.30R WCI  17
EAU CLAIRE     CLOUDY    11   8  88 S3        30.32R
BLACK RVR FLS  FAIR       4   0  81 CALM      30.33R
MEDFORD        CLOUDY    13  10  84 CALM      30.26R
WAUSAU         CLOUDY    16   9  74 CALM      30.26R
WIS RAPIDS     CLOUDY    11   8  88 SW3       30.31R
MARSHFIELD     CLOUDY    15   9  76 CALM      30.27R
RICE LAKE      CLOUDY    11   9  89 CALM      30.31S
$$

...NORTHEAST IOWA...


CITY           SKY/WX    TMP DP  RH WIND       PRES   REMARKS
WATERLOO       CLOUDY    13   8  81 CALM      30.36F
DUBUQUE        CLOUDY    15  11  83 CALM      30.34R
DECORAH        CLOUDY    14  12  92 CALM      30.32S
MASON CITY     CLOUDY    11   7  84 W6        30.34S WCI   1
CHARLES CITY   CLOUDY    14  12  92 CALM      30.34S
OELWEIN        CLOUDY    14  14 100 W6        30.35S WCI   5
$$

...ELSEWHERE IN IOWA...


CITY           SKY/WX    TMP DP  RH WIND       PRES   REMARKS
DES MOINES     CLOUDY    17  10  74 W3        30.39S
IOWA CITY      CLOUDY    16  11  80 W3        30.41R
FORT DODGE     CLOUDY    12   8  84 CALM      30.35F
MARSHALLTOWN   CLOUDY    13  10  88 W3        30.36S
CEDAR RAPIDS   CLOUDY    12   9  87 NW6       30.36R WCI   3
$$

...NORTHERN ILLINOIS...


CITY           SKY/WX    TMP DP  RH WIND       PRES   REMARKS
CHICAGO-OHARE  PTCLDY    23  15  71 NW8       30.33R WCI  14
CHICAGO-MIDWAY PTCLDY    23  16  74 W8        30.34R WCI  14
MOLINE         CLOUDY    19  12  74 CALM      30.38S
ROCKFORD       CLOUDY    18  12  77 NW3       30.36S
PEORIA         PTCLDY    19  15  84 CALM      30.39R
$$

NOTE: "FAIR" INDICATES FEW OR NO CLOUDS BELOW 12,000 FEET WITH NO
SIGNIFICANT WEATHER AND/OR OBSTRUCTIONS TO VISIBILITY. WIND
SPEEDS ARE IN MILES-PER-HOUR.




USA.gov is the U.S. government's official web portal to all federal, state and local government web resources and services.